Regional Weather Roundup
Issued by NWS

Home | Current Version | Previous Version | Graphics & Text | Print | Product List | Glossary On
Versions: 1 2 3 4 5 6 7 8 9 10 11 12 13 14 15 16 17 18 19 20 21 22 23 24 25 26 27 28 29 30 31 32 33 34 35 36 37 38 39 40 41 42 43 44 45 46 47 48 49 50
000
ASUS43 KLOT 050908
RWRIL

ILLINOIS REGIONAL WEATHER ROUNDUP
NATIONAL WEATHER SERVICE CHICAGO/ROMEOVILLE IL
400 AM CDT THU MAY 05 2016

NOTE: "FAIR" INDICATES FEW OR NO CLOUDS BELOW 12,000 FEET WITH NO
SIGNIFICANT WEATHER AND/OR OBSTRUCTIONS TO VISIBILITY.

* THESE STATIONS ARE NOT UNDER NWS QUALITY CONTROL. THEY ALSO MAY NOT
  REPORT WEATHER SUCH AS PRECIPITATION OR FOG.

ILZ001-002-007-009-015-016-024-051000-
NORTHWEST ILLINOIS

CITY           SKY/WX    TMP DP  RH WIND       PRES   REMARKS
MOLINE         CLEAR     40  34  79 CALM      29.95R
STERLING*      CLEAR     39  36  87 N5        29.95R
SAVANNA*       CLEAR     41  35  78 NE3       29.96R
$$

ILZ003-004-008-010-011-017-018-051000-
NORTH CENTRAL ILLINOIS

CITY           SKY/WX    TMP DP  RH WIND       PRES   REMARKS
ROCKFORD       CLEAR     40  33  76 N13       29.96R
FREEPORT*      CLEAR     39  34  81 N7        29.97R WCI  34
ROCHELLE*      CLEAR     37  35  92 N7        29.94R WCI  32
DE KALB*       MOCLDY    39  34  84 N9        29.93R WCI  32
$$

ILZ005-006-012>014-019>023-051000-
NORTHEAST ILLINOIS

CITY           SKY/WX    TMP DP  RH WIND       PRES   REMARKS
CHICAGO-OHARE  CLOUDY    43  33  68 N16       29.88S
CHICAGO-MIDWAY DRIZZLE   43  33  68 N20G30    29.88S
AURORA         CLOUDY    41  35  79 N13       29.90S
LANSING*       CLOUDY    41  36  80 N14G23    29.87S
JOLIET*        CLOUDY    44  35  70 N10       29.89R
WAUKEGAN       CLOUDY    42  33  70 N10G22    29.90S
DUPAGE AIRPORT CLOUDY    42  33  70 N10       29.89S
KANKAKEE*      CLOUDY    43  35  74 N13       29.87R
WHEELING       CLOUDY    43  33  68 N12       29.90S
MORRIS*        CLOUDY    40  35  83 CALM      29.89R
ROMEOVILLE*    CLOUDY    42  33  69 N13       29.88R
NORTHERLY ISL    N/A     42  35  76 N13         N/A
NORTHERLY ISL    N/A     42  35  76 N13         N/A
$$

LMZ740>746-051000-
SOUTHERN LAKE MICHIGAN

STATION/POSITION SKY/WX   TEMP    WIND        PRES    VSBY  WAVE
                          AIR SEA DIR/SP/G                  HT/PER
                          (F)     (DEG/KT/KT) (MB)    (MI)  (FT/S)
SOUTHERN BUOY              40 40   20/ 19/ 23 1011.5R         7/ 8
WILMETTE HARBOR            41 44   30/ 19/ 27   N/A           9/ 8
HARRISON CRIB              42     360/ 27/ 32   N/A
BURNHAM HARBOR             42     350/ 16/ 24   N/A
CALUMET HARBOR             42     340/ 21/ 29 1011.0S
BURNS HARBOR               43      20/ 26     1010.8R
MICHIGAN CITY              42     360/ 28/ 30   N/A
ST. JOSEPH                 44 47                N/A           8/ 7
$$

ILZ025>027-034>036-040-047-049-050-058-095>099-051000-
WEST-CENTRAL ILLINOIS

CITY           SKY/WX    TMP DP  RH WIND       PRES   REMARKS
QUINCY         CLEAR     44  35  70 N8        29.93R
GALESBURG*     CLEAR     39  35  87 NE5       29.95R
MACOMB*        CLEAR     40  36  83 N7        29.96R
JACKSONVILLE*  CLEAR     45  38  76 NE10      29.92R
PITTSFIELD*    CLEAR     48  36  64 N9        29.93R
$$

ILZ028>032-037-038-041>044-048-051>054-059>061-051000-
CENTRAL ILLINOIS

CITY           SKY/WX    TMP DP  RH WIND       PRES   REMARKS
PONTIAC        CLEAR     41  37  87 N10       29.90R
BLOOMINGTON    PTCLDY    40  37  89 N13       29.89R
DECATUR        CLEAR     43  35  73 N13       29.87R
PEORIA         CLEAR     43  35  73 N6        29.93R
LACON*         CLEAR     42  35  76 N7        29.93R
SPRINGFIELD    CLEAR     44  38  79 N9        29.91R
TAYLORVILLE    CLEAR     42  39  89 N8        29.89R
$$

ILZ033-039-045-046-055>057-062-063-051000-
EAST-CENTRAL ILLINOIS

CITY           SKY/WX    TMP DP  RH WIND       PRES   REMARKS
CHAMPAIGN      CLEAR     40  35  83 N12       29.84S
RANTOUL*       MOCLDY    43  37  81 N15       29.85R
MATTOON        CLEAR     42  35  76 N13       29.84R
PARIS*         CLOUDY    42  37  81 NW9       29.82S
$$

ILZ079-100>102-051000-
SOUTHWEST ILLINOIS

CITY           SKY/WX    TMP DP  RH WIND       PRES   REMARKS
ALTON          CLEAR     47  37  66 NW5       29.89R
BELLEVILLE     CLEAR     48  40  74 NW8       29.86R
CAHOKIA*       CLEAR     50  38  63 NW7       29.88R
SPARTA*        CLEAR     47  40  76 W3        29.87S
$$

ILZ064>066-069>071-074>076-080>082-084>086-088>090-092>094-051000-
SOUTH-CENTRAL ILLINOIS

CITY           SKY/WX    TMP DP  RH WIND       PRES   REMARKS
CARBONDALE     CLEAR     45  40  82 W5        29.85R
CAIRO*         CLEAR     50  42  72 W8        29.85S
EFFINGHAM*     CLEAR     45  40  83 NW9       29.87R
MARION         CLEAR     50  41  71 W3        29.84S
MT. VERNON     PTCLDY    48  37  66 CALM      29.84R
CENTRALIA*     CLEAR     49  41  73 N10       29.84R
SALEM*         CLEAR     48  40  72 N8        29.85R
METROPOLIS*    CLEAR     48  47  96 CALM      29.85R
$$

ILZ067-068-072-073-078-083-087-091-051000-
SOUTHEAST ILLINOIS

CITY           SKY/WX    TMP DP  RH WIND       PRES   REMARKS
LAWRENCEVILLE  PTCLDY    48  39  71 N14       29.81S
FLORA*         CLEAR     48  44  84 N9        29.85R
FAIRFIELD*     CLEAR     47  42  80 NW5       29.82R
HARRISBURG*    CLEAR     47  43  84 W9        29.83S
ROBINSON*      CLEAR     43  38  80 NW8       29.82S
CARMI*         CLEAR     46  42  88 NW7       29.82R
$$

ABBREVIATIONS USED IN REMARKS
   TC - TEMPERATURE IN CELSIUS
  WCI - WIND CHILL INDEX
   HX - HEAT INDEX
  VSB - VISIBILITY
$$





USA.gov is the U.S. government's official web portal to all federal, state and local government web resources and services.